#timestamp,LO_Frequency,Hit,StdDev 
1517382015.2,286047001.0,N
1517382035.1,286047000.8,N
1517382036.0,286047000.8,N
1517382055.8,286046997.2,N
1517382075.7,286046997.2,N
1517382095.5,286046995.3,N
1517382115.3,286046997.2,N
1517382135.2,286046993.7,N
1517382155.0,286046996.1,N
1517382155.9,286046996.1,N
1517382175.7,286046997.1,N
1517382195.6,286046999.6,N
1517382215.4,286046993.4,N
1517382235.3,286046991.8,Y
1517382255.1,286046994.7,P
1517382275.8,286046992.1,P
1517382295.7,286046994.7,N
1517382315.5,286046991.2,Y
1517382335.4,286047000.7,P
1517382355.2,286047000.3,N
1517382375.0,286046996.5,N
1517382375.9,286046996.5,N
1517382395.8,286046997.3,N
1517382415.6,286046995.4,N
1517382435.4,286046997.1,N
1517382455.3,286046995.3,N
1517382475.1,286046993.7,Y
1517382495.9,286047001.1,P
1517382515.7,286047002.9,N
1517382535.5,286047007.3,P
1517382555.4,286047006.1,N
1517382575.2,286047007.2,N
1517382595.1,286047007.3,N
1517382596.0,286047007.3,N
1517382615.8,286047005.6,N
1517382635.6,286047004.2,N
1517382655.5,286047004.0,N
1517382675.3,286047002.2,N
1517382695.1,286047004.3,N
1517382715.9,286047003.3,N
1517382735.7,286047007.2,N
1517382755.6,286047005.5,N
1517382775.4,286047011.4,Y
1517382795.2,286047007.1,P
1517382815.1,286047005.7,P
1517382816.0,286047005.7,P
1517382835.8,286047007.5,Y
1517382855.6,286046997.2,P
1517382875.5,286046998.3,N
1517382895.3,286046997.4,N
1517382915.2,286047004.8,N
1517382935.9,286047003.1,N
1517382955.7,286046999.5,N
1517382975.6,286046997.6,N
1517382995.4,286046999.3,N
1517383015.2,286047000.5,N
1517383035.1,286047000.0,N
1517383036.0,286047000.0,N
1517383055.8,286046998.0,N
1517383075.7,286046993.5,N
1517383095.5,286046992.1,N
1517383115.3,286046991.7,N
1517383135.2,286046992.4,N
1517383155.0,286046992.4,N
1517383155.9,286046992.4,N
1517383175.7,286046990.3,N
1517383195.6,286046987.0,N
1517383215.4,286046988.6,N
1517383235.3,286046989.7,N
1517383255.1,286046988.4,N
1517383256.0,286046988.4,N
1517383275.8,286046985.4,N
1517383295.7,286046989.5,N
1517383315.5,286046989.5,N
1517383335.3,286046988.7,N
1517383355.2,286046989.4,N
1517383375.0,286046987.3,N
1517383375.9,286046987.3,N
1517383395.8,286046988.9,N
1517383415.6,286046992.1,N
1517383435.4,286046995.9,N
1517383455.3,286046992.5,N
1517383475.1,286047000.6,N
1517383495.9,286047000.8,N
1517383515.7,286046996.7,N
1517383535.5,286046994.7,N
1517383555.4,286047000.2,N
1517383575.2,286047001.4,N
1517383595.0,286047001.8,N
1517383595.9,286047001.8,N
1517383615.8,286047001.8,N
1517383635.6,286047006.1,N
1517383655.5,286047012.9,N
1517383675.3,286047008.5,N
1517383695.1,286047002.5,N
1517383715.9,286046998.7,N
1517383735.7,286046994.9,N
1517383755.5,286047001.0,N
1517383775.4,286047001.5,N
1517383795.2,286047006.8,N
1517383815.1,286047006.2,N
1517383816.0,286047006.2,N
1517383835.8,286047009.0,N
1517383855.6,286047017.4,N
1517383875.5,286047011.9,N
1517383895.3,286047010.4,N
1517383915.1,286047007.0,N
1517383935.9,286047006.9,N
1517383955.7,286047011.4,N
1517383975.6,286047011.2,N
1517383995.4,286047013.4,N
1517384015.2,286047013.8,N
1517384035.1,286047012.2,N
1517384036.0,286047012.2,N
1517384055.8,286047011.9,N
1517384075.7,286047008.0,N
1517384095.5,286047008.6,N
1517384115.3,286047007.0,N
1517384135.2,286047008.5,N
1517384155.9,286047003.5,N
1517384175.7,286047000.2,N
1517384195.6,286046996.8,N
1517384215.4,286046997.6,N
1517384235.3,286047001.2,N
1517384255.1,286046999.2,N
1517384256.0,286046999.2,N
1517384275.8,286046993.5,N
1517384295.7,286046991.9,N
1517384315.5,286046992.6,N
1517384335.3,286046993.0,N
1517384355.2,286046992.3,N
1517384375.0,286046991.4,N
1517384375.9,286046991.4,N
1517384395.8,286046989.4,N
1517384415.6,286046987.2,N
1517384435.4,286046985.4,N
1517384455.3,286046989.9,N
1517384475.1,286046987.0,N
1517384495.8,286046988.0,N
1517384515.7,286046987.9,N
1517384535.5,286046989.9,N
1517384555.4,286046988.5,N
1517384575.2,286046989.4,N
1517384595.0,286046991.4,N
1517384595.9,286046991.4,N
1517384615.8,286046988.5,N
1517384635.6,286046989.3,N
1517384655.4,286046987.9,N
1517384675.3,286046986.8,N
1517384695.1,286046984.0,Y
1517384715.9,286046994.7,P
1517384735.7,286046990.1,P
1517384755.5,286046993.0,P
1517384775.4,286046991.4,Y
1517384795.2,286046997.0,P
1517384815.0,286046997.2,N
1517384815.9,286046997.2,N
1517384835.8,286046997.0,N
1517384855.6,286046998.3,N
1517384875.5,286047002.5,N
1517384895.3,286047002.0,N
1517384915.1,286046999.3,N
1517384935.9,286046995.4,N
1517384955.7,286046995.1,N
1517384975.5,286046996.3,N
1517384995.4,286046993.5,N
1517385015.2,286046995.1,N
1517385035.1,286046996.0,N
1517385036.0,286046996.0,N
1517385055.8,286046993.5,N
1517385075.6,286046996.9,N
1517385095.5,286046997.9,N
1517385115.3,286046997.1,N
1517385135.2,286046997.7,N
1517385155.9,286046995.1,N
1517385175.7,286046998.8,N
1517385195.6,286046995.2,N
1517385215.4,286046995.2,N
1517385235.2,286046993.9,N
1517385255.1,286046992.6,Y
1517385256.0,286046992.6,P
1517385275.8,286046996.0,N
1517385295.7,286046993.7,P
1517385315.5,286046994.5,Y
1517385335.3,286046999.3,P
1517385355.2,286046996.7,N
1517385375.0,286046998.4,N
1517385375.9,286046998.4,N
1517385395.7,286046999.1,N
1517385415.6,286046999.9,N
1517385435.4,286047000.2,N
1517385455.3,286046997.2,N
1517385475.1,286046999.5,N
1517385476.0,286046999.5,N
1517385495.8,286046999.0,N
1517385515.7,286046998.1,N
1517385535.5,286047000.4,N
1517385555.3,286047000.6,N
1517385575.2,286047000.2,N
1517385595.0,286047002.8,N
1517385595.9,286047002.8,N
